Fairbanks, AK

7:19 AM AKDT on August 25, 2016 (GMT -0800)
Fairbanks International

Weather History for PAFA - August, 2014

Change the Weather History Date:

Thursday, August 14, 2014

  Actual Average Record
Temperature  
Mean Temperature 66 °F 57 °F  
Max Temperature 78 °F 67 °F 89 °F (1926)
Min Temperature 54 °F 47 °F 27 °F (1924)
Degree Days  
Heating Degree Days 0 8  
Month to date heating degree days 25 95  
Since 1 June heating degree days 354 363  
Since 1 July heating degree days 162 203  
Cooling Degree Days 1 0  
Month to date cooling degree days 7 0  
Year to date cooling degree days 27 55  
Since 1 June cooling degree days 27 54  
Growing Degree Days 16 (Base 50)    
Moisture  
Dew Point 48 °F    
Average Humidity 54    
Maximum Humidity 81    
Minimum Humidity 21    
Precipitation  
Precipitation 0.00 in 0.06 in 0.64 in (1934)
Month to date precipitation 1.79 0.92  
Year to date precipitation 12.22 6.61  
Snow  
Snow 0.00 in 0.00 in 0.00 in (2002)
Month to date snowfall 0.0 0.0  
Since 1 June snowfall 0.0 0.0  
Since 1 July snowfall 0.0 0.0  
Snow Depth 0.00 in    
Sea Level Pressure  
Sea Level Pressure 29.65 in    
Wind  
Wind Speed 3 mph (East)    
Max Wind Speed 9 mph    
Max Gust Speed -    
Visibility 10 miles    
Events      
T = Trace of Precipitation, MM = Missing Value Source: NWS Daily Summary

Daily Weather History Graph

Daily Weather History Graph

Search for Another Location

Airport or City:

Trip Planner

Search our weather history database for the weather conditions in past years. The results will help you decide how hot, cold, wet, or windy it might be!

Date:

Astronomy

Aug. 14, 2014 Rise Set
Actual Time 5:35 AM AKDT 10:14 PM AKDT
Civil Twilight 4:25 AM AKDT 11:22 PM AKDT
Nautical Twilight 2:28 AM AKDT 1:23 AM AKDT
Astronomical Twilight Sun does not set Sun does not set
Moon 10:28 PM AKDT (8/14) 12:30 PM AKDT (8/14)
Length of Visible Light 18h 57m
Length of Day
16h 38m
Waning Gibbous, 78% of the Moon is Illuminated
Aug 14
Waning Gibbous
Aug 17
Last Quarter
Aug 25
New
Sep 2
First Quarter
Sep 8
Full

Hourly Weather History & Observations

Time (AKDT) Temp. Dew Point Humidity Pressure Visibility Wind Dir Wind Speed Gust Speed Precip Events Conditions
12:53 AM 63.0 °F 46.0 °F 54% 29.65 in 10.0 mi NW 5.8 mph - N/A   Mostly Cloudy
1:53 AM 61.0 °F 48.0 °F 62% 29.66 in 10.0 mi Calm Calm - N/A   Mostly Cloudy
2:53 AM 60.1 °F 50.0 °F 69% 29.67 in 10.0 mi North 3.5 mph - N/A   Mostly Cloudy
3:53 AM 57.0 °F 51.1 °F 81% 29.68 in 10.0 mi NE 3.5 mph - N/A   Mostly Cloudy
4:53 AM 57.0 °F 48.9 °F 74% 29.70 in 10.0 mi Calm Calm - N/A   Mostly Cloudy
5:53 AM 55.0 °F 48.9 °F 80% 29.70 in 10.0 mi Calm Calm - N/A   Mostly Cloudy
6:53 AM 55.9 °F 50.0 °F 80% 29.70 in 10.0 mi West 4.6 mph - N/A   Mostly Cloudy
7:53 AM 57.9 °F 51.1 °F 78% 29.70 in 10.0 mi SSE 3.5 mph - N/A   Partly Cloudy
8:53 AM 60.1 °F 51.1 °F 72% 29.70 in 10.0 mi Calm Calm - N/A   Partly Cloudy
9:53 AM 63.0 °F 50.0 °F 63% 29.71 in 10.0 mi East 3.5 mph - N/A   Partly Cloudy
10:53 AM 66.0 °F 48.9 °F 54% 29.70 in 10.0 mi Calm Calm - N/A   Partly Cloudy
11:53 AM 70.0 °F 48.0 °F 46% 29.69 in 10.0 mi Calm Calm - N/A   Partly Cloudy
12:53 PM 71.1 °F 48.0 °F 44% 29.67 in 10.0 mi ENE 4.6 mph - N/A   Scattered Clouds
1:53 PM 73.9 °F 48.0 °F 40% 29.65 in 10.0 mi ESE 8.1 mph - N/A   Scattered Clouds
2:53 PM 73.9 °F 46.0 °F 37% 29.63 in 10.0 mi Variable 4.6 mph - N/A   Mostly Cloudy
3:53 PM 75.9 °F 44.1 °F 32% 29.62 in 10.0 mi Variable 5.8 mph - N/A   Mostly Cloudy
4:53 PM 77.0 °F 45.0 °F 32% 29.61 in 10.0 mi East 8.1 mph - N/A   Mostly Cloudy
5:53 PM 75.0 °F 46.0 °F 36% 29.60 in 10.0 mi ESE 3.5 mph - N/A   Mostly Cloudy
6:53 PM 75.0 °F 46.9 °F 37% 29.59 in 10.0 mi East 3.5 mph - N/A   Mostly Cloudy
7:53 PM 73.9 °F 45.0 °F 35% 29.58 in 10.0 mi ESE 9.2 mph - N/A   Mostly Cloudy
8:53 PM 73.0 °F 46.0 °F 38% 29.57 in 10.0 mi SE 5.8 mph - N/A   Mostly Cloudy
9:53 PM 69.1 °F 46.9 °F 45% 29.57 in 10.0 mi Calm Calm - N/A   Scattered Clouds
10:53 PM 61.0 °F 51.1 °F 70% 29.57 in 10.0 mi Calm Calm - N/A   Scattered Clouds
11:53 PM 57.9 °F 50.0 °F 75% 29.57 in 10.0 mi NNE 5.8 mph - N/A   Scattered Clouds